Flag for U.S.A. Weather past 2 weeks in Evansville, Indiana, U.S.A.

Now
54 °F

Clear.


Feels Like: 54 °F
Forecast: 54 / 76 °F
Wind: No wind

Location: Evansville Regional Airport

Current Time: Oct 24, 2014 at 10:47:46 PM

Latest Report: Oct 24, 2014 at 9:54 PM


Visibility: 8 mi

Pressure: 30.06 "Hg

Humidity: 90%

Dew point: 51 °F

Location of EvansvilleLocation

Historic Weather in Evansville — Graph

°F

Evansville temperature yesterday

Maximum temperature yesterday: 62 °F (at 2:54 PM)
Minimum temperature yesterday: 38 °F (at 6:54 AM)
Average temperature yesterday: 50 °F

Past Weeks' High & Low Weather Summary

 TemperatureHumidityPressure
High77 °F (Oct 13, 3:54 PM)97% (Oct 10, 3:54 AM)30.33 "Hg (Oct 10, 3:54 AM)
Low38 °F (Oct 23, 6:54 AM)37% (Oct 17, 2:54 PM)29.55 "Hg (Oct 14, 5:54 AM)
Average57 °F78%29.98 "Hg
* Reported Oct 9 8:54 PM — Oct 24 8:54 PM, Evansville, Weather by CustomWeather, © 2014

Note: Actual official high and low records may vary slightly from our data, if they occured in-between our weather recording intervals... More about our weather records

Advertising

Evansville weather history for previous 24 hours

 ConditionsComfort  
Time TempWeatherWind HumidityBarometerVisibility
8:54 PM
Oct 24
57 °FClear.3 mph83%30.06 "Hg10 mi
7:54 PM57 °FClear.No wind83%30.05 "Hg9 mi
6:54 PM61 °FPassing clouds.No wind75%30.05 "Hg10 mi
5:54 PM64 °FSunny.3 mph68%30.04 "Hg10 mi
4:54 PM67 °FSunny.7 mph59%30.05 "Hg10 mi
3:54 PM69 °FPassing clouds.7 mph53%30.05 "Hg10 mi
2:54 PM68 °FPassing clouds.7 mph53%30.06 "HgN/A
1:54 PM68 °FSunny.6 mph51%30.07 "Hg10 mi
12:54 PM65 °FSunny.5 mph52%30.09 "Hg10 mi
11:54 AM62 °FSunny.6 mph56%30.12 "Hg10 mi
10:54 AM59 °FScattered clouds.No wind64%30.13 "Hg10 mi
9:54 AM56 °FOvercast.3 mph72%30.14 "Hg10 mi
8:54 AM53 °FOvercast.No wind83%30.14 "Hg8 mi
7:54 AM50 °FFog.No wind89%30.13 "Hg6 mi
6:54 AM49 °FOvercast.No wind90%30.13 "Hg8 mi
5:54 AM48 °FOvercast.No wind86%30.13 "Hg10 mi
4:54 AM46 °FOvercast.No wind89%30.12 "Hg9 mi
3:54 AM43 °FPassing clouds.No wind93%30.12 "Hg8 mi
2:54 AM43 °FPassing clouds.No wind93%30.11 "Hg9 mi
1:54 AM43 °FClear.No wind93%30.13 "Hg9 mi
12:54 AM45 °FClear.No wind93%30.13 "Hg9 mi
11:54 PM
Oct 23
48 °FClear.No wind86%30.12 "Hg10 mi
10:54 PM49 °FClear.No wind86%30.13 "Hg10 mi
Weather by CustomWeather, © 2014

See weather overviewHow to use our weather pages